Regional Weather Roundup
Issued by NWS

Home | Current Version | Previous Version | Graphics & Text | Print | Product List | Glossary Off
Versions: 1 2 3 4 5 6 7 8 9 10 11 12 13 14 15 16 17 18 19 20 21 22 23 24 25 26 27 28 29 30 31 32 33 34 35 36 37 38 39 40 41 42 43 44 45 46 47 48 49 50

000
ASUS43 KDMX 281107
RWRIA

WEATHER ROUNDUP FOR IOWA
NATIONAL WEATHER SERVICE DES MOINES IA
500 AM CST FRI NOV 28 2014

NOTE: "FAIR" INDICATES FEW OR NO CLOUDS BELOW 12,000 FEET WITH NO
SIGNIFICANT WEATHER AND/OR OBSTRUCTIONS TO VISIBILITY.

* - THESE STATIONS ARE NOT NWS STATIONS...THUS NOT UNDER NWS
QUALITY CONTROL.  THEY ALSO DO NOT REPORT WEATHER SUCH
AS PRECIPITATION OR FOG.

IAZ001>003-012>014-020>022-031>034-043>046-281200-
   NORTHWEST IOWA

CITY           SKY/WX    TMP DP  RH WIND       PRES   REMARKS
CARROLL *      MOCLDY    16  14  93 SE13      29.97F WCI   2
CHEROKEE *     PTCLDY    19  18  93 S7        29.91F WCI  10
DENISON *      CLEAR     27  23  86 S8        29.94F WCI  18
LE MARS *      CLEAR     25  21  86 S14       29.90F WCI  13
ORANGE CITY *  CLEAR     23  19  86 S8        29.89F WCI  14
SHELDON *      CLEAR     16  14  93 SE12      29.89F WCI   3
SIOUX CITY     MOCLDY    23  19  85 SE9       29.92F WCI  13
SPENCER        CLEAR     14   9  80 SE12      29.93F WCI   0
STORM LAKE *   CLEAR     14  12  92 S13       29.92F WCI   0
$$

IAZ055>058-069>071-079>083-090>094-281200-
   SOUTHWEST IOWA

CITY           SKY/WX    TMP DP  RH WIND       PRES   REMARKS
ATLANTIC *     CLEAR     28  23  80 S5        29.99R WCI  23
AUDUBON *      CLEAR     27  18  69 S7        29.97F WCI  19
CLARINDA *     CLEAR     28  23  80 S9        30.00F WCI  20
COUNCIL BLFS * CLEAR     27  25  93 S10       29.94F WCI  17
CRESTON *      CLEAR     27  23  86 S20       29.97F WCI  13
HARLAN  *      CLEAR     27  23  86 S6        30.01F WCI  20
LAMONI         CLEAR     26  22  84 S14       30.02F WCI  14
RED OAK *      CLEAR     28  23  80 S10       29.98F WCI  19
SHENANDOAH *   CLEAR     28  23  80 S8        29.99F WCI  20
$$

IAZ047>049-059>061-072>074-084-281200-
   CENTRAL IOWA

CITY           SKY/WX    TMP DP  RH WIND       PRES   REMARKS
AMES           PTCLDY    14   8  77 SE10      30.05F WCI   1
ANKENY *       CLEAR     18  12  79 SE8       30.06F WCI   7
CHARITON *     CLEAR     23  19  86 SE13      30.03F WCI  11
DES MOINES     PTCLDY    19  13  77 E9        30.06F WCI   8
GRINNELL*      PTCLDY    14   9  79 SE15      30.09F WCI  -1
KNOXVILLE *    CLEAR     19  12  73 SE10      30.05F WCI   8
MARSHALLTOWN   PTCLDY    15   8  73 SE21      30.06F WCI  -2
PELLA *        PTCLDY    18  12  79 SE9       30.10F WCI   6
PERRY *          N/A     18  14  86 SE10      30.02F WCI   6
$$

IAZ004>006-015-016-023>025-035-036-281200-
   NORTH CENTRAL IOWA

CITY           SKY/WX    TMP DP  RH WIND       PRES   REMARKS
ALGONA *       MOCLDY    18  12  79 S22       29.97F WCI   0
CLARION *      CLOUDY    18  14  86 SE21      30.00F WCI   1
ESTHERVILLE    MOCLDY    12   8  84 S13       29.93F WCI  -3
FORT DODGE *   MOCLDY    18  10  73 SE9G16    30.00F WCI   6
MASON CITY     MOCLDY    13   5  70 SE15      30.03F WCI  -3
FOREST CITY *  CLOUDY    16  10  79 SE16      30.01S WCI   0
IOWA FALLS *   MOCLDY    16  10  79 SE14      30.04F WCI   1
$$

IAZ007>011-017>019-026>030-037>042-050>054-066-281200-
   NORTHEAST IOWA

CITY           SKY/WX    TMP DP  RH WIND       PRES   REMARKS
CEDAR RAPIDS   MOCLDY    14   5  67 SE10      30.17F WCI   1
CHARLES CITY * CLOUDY    16   5  62 SE16G25   30.07F WCI   0
CLINTON *      CLOUDY    16   9  73 SE13      30.27F WCI   2
DECORAH *      CLOUDY    14   9  79 SE10G18   30.11F WCI   1
DUBUQUE        CLOUDY    14   8  77 SE9       30.20F WCI   2
MONTICELLO *   CLOUDY    16   9  73 SE12G18   30.20F WCI   3
OELWEIN *      CLOUDY    16   9  73 SE18G25   30.11F WCI  -1
WATERLOO       PTCLDY    16   6  65 SE16      30.10F WCI   1
$$

IAZ064-065-067-068-078-281200-
   EAST CENTRAL IOWA

CITY           SKY/WX    TMP DP  RH WIND       PRES   REMARKS
DAVENPORT      MOCLDY    16   8  71 SE13      30.25F WCI   2
IOWA CITY      PTCLDY    14   7  73 SE7       30.22F WCI   4
MT. PLEASANT * PTCLDY    16  10  79 SE15      30.20F WCI   1
MUSCATINE *    PTCLDY    18   7  62 SE8       30.24F WCI   7
QUAD CITIES    CLOUDY    18   9  68 SE8       30.26F WCI   8
$$

IAZ062-063-075>077-085>089-095>099-281200-
   SOUTHEAST IOWA

CITY           SKY/WX    TMP DP  RH WIND       PRES   REMARKS
BURLINGTON     MOCLDY    17  10  74 SE9       30.22F WCI   6
FAIRFIELD *    CLEAR     18  10  73 SE13      30.17F WCI   4
FORT MADISON * CLEAR     19  12  73 SE10      30.21F WCI   8
KEOKUK *       CLOUDY    21  16  79 SE9G17    30.20F WCI  11
OSKALOOSA *      N/A     16  12  86 SE14      30.12F WCI   1
CENTERVILLE *  CLEAR     23  19  86 SE12      30.10F WCI  12
OTTUMWA        CLEAR     19  12  74 SE16      30.12F WCI   4
WASHINGTON *   PTCLDY    16  12  86 SE12      30.19F WCI   3
$$

ABBREVIATIONS USED IN REMARKS
   TC - TEMPERATURES IN CELSIUS
  WCI - WIND CHILL INDEX
   HX - HEAT INDEX
  VSB - VISIBILITY
$$




USA.gov is the U.S. government's official web portal to all federal, state and local government web resources and services.